Погода в Сегян-Кюёль

Россия / Республика Саха (Якутия)     64°00′09″N   130°18′37″E
темп.,
°C
ветер,
м/с
пор.,
м/с
влажн.,
%
обл.,
%
осадки,
мм/ч
давл.,
гПа
погр.,
м
23 мая, пн
пн2300:00+3ссв3497100 1.3 1009108
03:00+3св339799 3.8 1009120
06:00+2в2399100 2.9 1010180
09:00+2св2398100 10.4 1010196
12:00+3ссв3497100 3.2 1010228
15:00+4ссв3397100 3.4 1009194
18:00+6ссв238921 0.0 1009268
21:00+3ссв339310 0.0 101040
24 мая, вт
вт2400:00+1ссв33895 0.0 101020
03:00+1ссв338895 0.0 101029
06:00+3всв228199 0.0 1009123
09:00+7вюв4580100 0.0 1007829
12:00+7в5882100 0.8 1005951
15:00+5св3496100 8.8 1003147
18:00+3ссв4695100 5.4 1003178
21:00+3с3496100 6.3 1003131
25 мая, ср
ср2500:00+3сз1295100 0.0 100233
03:00+3юв119293 0.0 100119
06:00+3ю2295100 0.0 1000150
09:00+3ююв2296100 0.0 1001345
12:00+2вюв2298100 0.2 1001223
15:00+2в1299100 0.5 1002226
18:00+2св0199100 0.3 1002219
21:00+1ссз1299100 1.9 1002187
26 мая, чт
чт2600:00+1сз1299100 1.3 1001161
03:00+2с2287100 1.3 100137
06:00+3с3678100 0.0 1002372
09:00+5ссв4663100 0.0 1002719
12:00+7ссв4657100 0.0 1002921
15:00+8ссв5753100 0.0 10031101
18:00+6с4765100 0.1 1004653
21:00+4св3377100 0.1 100644
27 мая, пт
пт2700:00+2ссв3381100 0.0 100744
03:00+1ссв4478100 0.0 100761
06:00+3ссв456791 0.0 1007303
09:00+6ссв335583 0.0 1008652
12:00+8с2250100 0.0 10081070
15:00+10ссв2248100 0.0 10071399
18:00+10юв1250100 0.0 10081289
21:00+8ю1272100 0.1 100830